DW4075 Weather Reports


time (UTC)temp
F
wind
direction
speed
knots
gust
knots
rain 1hr
in
rain 24hr
in
rain mn
in
humidity
%
barometer
mb
20260508024403 58 286 2.6 8.7 0.00 0.00 0.00 19 1018.9
20260508023903 59 300 1.7 4.3 0.00 0.00 0.00 18 1019.3
20260508023404 60 300 2.6 4.3 0.00 0.00 0.00 17 1019.4
20260508022854 60 300 2.6 5.2 0.00 0.00 0.00 17 1019.6
20260508022346 61 300 3.5 5.2 0.00 0.00 0.00 17 1019.7
20260508021844 61 302 4.3 7.0 0.00 0.00 0.00 16 1019.7
20260508021341 61 305 4.3 7.0 0.00 0.00 0.00 16 1019.7
20260508020835 62 313 2.6 6.1 0.00 0.00 0.00 14 1020.0
20260508020333 63 69 1.7 4.3 0.00 0.00 0.00 14 1020.4
20260508015836 64 69 0.9 3.5 0.00 0.00 0.00 14 1020.7
20260508015556 65 69 1.7 4.3 0.00 0.00 0.00 14 1020.8
20260508014831 66 69 0.9 4.3 0.00 0.00 0.00 13 1021.2
20260508014559 66 69 0.9 2.6 0.00 0.00 0.00 13 1021.3
20260508013831 67 69 0.9 3.5 0.00 0.00 0.00 12 1021.6
20260508013332 68 69 0.0 3.5 0.00 0.00 0.00 12 1021.8
20260508012834 69 69 0.9 3.5 0.00 0.00 0.00 13 1022.1
20260508012331 69 69 0.9 3.5 0.00 0.00 0.00 12 1022.2
20260508011831 69 69 0.9 3.5 0.00 0.00 0.00 11 1022.3
20260508011331 69 69 1.7 3.5 0.00 0.00 0.00 11 1022.2
20260508011055 70 69 1.7 5.2 0.00 0.00 0.00 11 1022.3
20260508010323 70 69 2.6 6.1 0.00 0.00 0.00 11 1022.5
20260508010047 70 71 3.5 6.1 0.00 0.00 0.00 11 1022.7
20260508005316 70 74 3.5 8.7 0.00 0.00 0.00 10 1022.5
20260508005036 71 90 3.5 8.7 0.00 0.00 0.00 10 1022.9
20260508004300 71 100 2.6 7.0 0.00 0.00 0.00 10 1023.0
20260508004237 71 130 3.5 9.6 0.00 0.00 0.00 10 1023.2
20260508003252 71 142 4.3 9.6 0.00 0.00 0.00 11 1023.4
20260508002741 72 131 3.5 7.0 0.00 0.00 0.00 10 1023.6
20260508002239 72 142 3.5 7.0 0.00 0.00 0.00 11 1023.9
20260508001954 72 138 3.5 8.7 0.00 0.00 0.00 10 1023.9
20260508001223 72 141 4.3 8.7 0.00 0.00 0.00 10 1024.0
20260508000950 73 162 5.2 9.6 0.00 0.00 0.00 11 1024.1
20260508000215 73 167 5.2 9.6 0.00 0.00 0.00 10 1024.2
20260507235713 73 159 5.2 11.3 0.00 0.00 0.00 10 1024.5
20260507235211 74 177 4.3 11.3 0.00 0.00 0.00 10 1025.0
20260507234710 74 207 2.6 8.7 0.00 0.00 0.00 11 1025.1
20260507234206 74 213 3.5 8.7 0.00 0.00 0.00 11 1025.2
20260507233703 74 166 4.3 10.4 0.00 0.00 0.00 11 1025.2
20260507233201 74 189 4.3 10.4 0.00 0.00 0.00 11 1025.2
20260507232700 74 221 4.3 8.7 0.00 0.00 0.00 11 1025.1
20260507232204 74 227 4.3 8.7 0.00 0.00 0.00 11 1025.5
20260507231701 74 214 4.3 8.7 0.00 0.00 0.00 12 1025.6
20260507231159 75 147 4.3 8.7 0.00 0.00 0.00 11 1025.7
20260507230915 74 248 3.5 8.7 0.00 0.00 0.00 12 1025.8
20260507230152 74 165 3.5 8.7 0.00 0.00 0.00 14 1026.1
20260507225650 74 207 3.5 7.0 0.00 0.00 0.00 13 1025.8
20260507225149 74 197 3.5 7.8 0.00 0.00 0.00 14 1025.8
20260507224646 74 200 4.3 7.8 0.00 0.00 0.00 13 1025.9
20260507224147 74 155 4.3 8.7 0.00 0.00 0.00 13 1025.8
20260507223644 73 165 4.3 8.7 0.00 0.00 0.00 15 1025.6
20260507223143 73 234 4.3 11.3 0.00 0.00 0.00 14 1025.6
20260507222644 73 257 4.3 11.3 0.00 0.00 0.00 15 1025.8
20260507222408 72 185 4.3 13.0 0.00 0.00 0.00 16 1025.6
20260507221905 73 175 4.3 13.0 0.00 0.00 0.00 16 1025.8
20260507221142 72 145 4.3 11.3 0.00 0.00 0.00 17 1025.8
20260507220639 71 181 4.3 11.3 0.00 0.00 0.00 18 1025.6
20260507220400 71 136 3.5 7.8 0.00 0.00 0.00 18 1025.7
20260507215634 71 193 3.5 7.8 0.00 0.00 0.00 18 1025.8
20260507215131 71 174 3.5 7.8 0.00 0.00 0.00 19 1025.9
20260507214856 72 188 5.2 8.7 0.00 0.00 0.00 19 1026.3
20260507214130 72 202 6.1 11.3 0.00 0.00 0.00 20 1026.3
20260507213625 72 192 6.1 12.2 0.00 0.00 0.00 20 1026.4
20260507213119 72 178 5.2 12.2 0.00 0.00 0.00 20 1026.4
20260507212832 72 192 4.3 11.3 0.00 0.00 0.00 21 1026.4
20260507212105 71 130 5.2 8.7 0.00 0.00 0.00 22 1026.4
20260507211824 71 141 6.1 12.2 0.00 0.00 0.00 22 1026.4
20260507211054 72 192 6.1 12.2 0.00 0.00 0.00 22 1026.9
20260507210542 71 236 3.5 8.7 0.00 0.00 0.00 22 1026.8
20260507210036 71 149 2.6 8.7 0.00 0.00 0.00 21 1026.6
20260507205531 71 117 4.3 11.3 0.00 0.00 0.00 21 1027.0
20260507205030 71 171 4.3 11.3 0.00 0.00 0.00 20 1027.2
20260507204530 71 181 3.5 6.1 0.00 0.00 0.00 22 1027.2
20260507204031 70 248 3.5 7.8 0.00 0.00 0.00 22 1026.8
20260507203531 70 149 4.3 8.7 0.00 0.00 0.00 20 1026.9
20260507203031 70 114 4.3 8.7 0.00 0.00 0.00 18 1026.9
20260507202530 70 142 2.6 7.8 0.00 0.00 0.00 19 1027.0
20260507202032 70 101 3.5 7.0 0.00 0.00 0.00 19 1027.2
20260507201524 70 306 4.3 9.6 0.00 0.00 0.00 19 1027.0
20260507201022 70 317 3.5 9.6 0.00 0.00 0.00 19 1027.3
20260507200519 69 242 4.3 9.6 0.00 0.00 0.00 20 1027.2
20260507200016 69 182 5.2 9.6 0.00 0.00 0.00 19 1027.2
20260507195516 69 109 4.3 8.7 0.00 0.00 0.00 19 1027.2
20260507195012 69 138 4.3 8.7 0.00 0.00 0.00 20 1027.3
20260507194512 69 143 3.5 7.0 0.00 0.00 0.00 20 1027.2
20260507194010 68 92 2.6 7.0 0.00 0.00 0.00 21 1027.0
20260507193508 67 150 2.6 7.0 0.00 0.00 0.00 22 1026.7
20260507193007 67 155 2.6 5.2 0.00 0.00 0.00 22 1026.8
20260507192504 68 155 3.5 5.2 0.00 0.00 0.00 21 1027.2
20260507192003 68 154 2.6 5.2 0.00 0.00 0.00 22 1027.4
20260507191456 67 65 1.7 6.1 0.00 0.00 0.00 23 1027.3
20260507190950 67 63 2.6 7.8 0.00 0.00 0.00 23 1027.3
20260507190450 67 69 4.3 7.8 0.00 0.00 0.00 22 1027.3
20260507185946 67 59 3.5 7.8 0.00 0.00 0.00 22 1027.3
20260507185445 67 70 2.6 7.8 0.00 0.00 0.00 23 1027.2
20260507184944 66 69 3.5 8.7 0.00 0.00 0.00 22 1027.3
20260507184439 66 92 3.5 8.7 0.00 0.00 0.00 24 1027.2
20260507183938 66 99 2.6 7.0 0.00 0.00 0.00 23 1027.0
20260507183435 65 57 3.5 8.7 0.00 0.00 0.00 23 1027.0
20260507182934 65 49 3.5 8.7 0.00 0.00 0.00 23 1026.9
20260507182431 64 45 3.5 8.7 0.00 0.00 0.00 25 1026.7
20260507181933 64 86 4.3 8.7 0.00 0.00 0.00 24 1026.7
20260507181430 63 71 3.5 9.6 0.00 0.00 0.00 25 1026.6
20260507180929 63 38 3.5 9.6 0.00 0.00 0.00 25 1026.6
20260507180419 63 57 3.5 8.7 0.00 0.00 0.00 25 1026.4
20260507175913 63 15 3.5 8.7 0.00 0.00 0.00 25 1026.4
20260507175414 63 24 4.3 9.6 0.00 0.00 0.00 26 1026.7
20260507174911 63 40 5.2 10.4 0.00 0.00 0.00 27 1026.8
20260507174413 63 49 4.3 10.4 0.00 0.00 0.00 28 1026.7
20260507173909 62 46 4.3 9.6 0.00 0.00 0.00 29 1026.8
20260507173408 62 39 4.3 11.3 0.00 0.00 0.00 29 1026.7
20260507172907 62 53 4.3 11.3 0.00 0.00 0.00 29 1026.7
20260507172406 62 15 4.3 8.7 0.00 0.00 0.00 28 1026.7
20260507171903 61 36 4.3 11.3 0.00 0.00 0.00 29 1026.7
20260507171404 60 45 4.3 11.3 0.00 0.00 0.00 30 1026.4
20260507170903 60 51 4.3 10.4 0.00 0.00 0.00 30 1026.6
20260507170403 60 0 5.2 10.4 0.00 0.00 0.00 29 1026.6
20260507165903 60 51 4.3 10.4 0.00 0.00 0.00 30 1026.4
20260507165403 59 49 5.2 10.4 0.00 0.00 0.00 30 1026.2
20260507164903 59 41 5.2 9.6 0.00 0.00 0.00 29 1026.2
20260507164403 59 48 5.2 13.9 0.00 0.00 0.00 29 1026.4
20260507163908 59 11 5.2 13.9 0.00 0.00 0.00 29 1026.2
20260507163405 58 9 5.2 10.4 0.00 0.00 0.00 29 1025.9
20260507162858 58 29 6.1 10.4 0.00 0.00 0.00 29 1026.1
20260507162348 57 33 6.1 10.4 0.00 0.00 0.00 29 1025.8
20260507161842 57 48 6.1 10.4 0.00 0.00 0.00 29 1025.7
20260507161603 57 5 6.1 12.2 0.00 0.00 0.00 29 1025.8
20260507160835 56 49 6.1 12.2 0.00 0.00 0.00 30 1025.6
20260507160559 55 355 6.1 15.6 0.00 0.00 0.00 34 1025.2
20260507155831 55 31 5.2 15.6 0.00 0.00 0.00 34 1025.0
20260507155324 54 39 5.2 9.6 0.00 0.00 0.00 40 1024.9
20260507154823 54 5 6.1 11.3 0.00 0.00 0.00 40 1024.7
20260507154323 53 45 6.1 11.3 0.00 0.00 0.00 40 1024.7
20260507153823 53 20 5.2 9.6 0.00 0.00 0.00 43 1024.4
20260507153322 52 58 6.1 12.2 0.00 0.00 0.00 44 1024.2
20260507153047 52 55 6.1 12.2 0.00 0.00 0.00 45 1024.0
20260507152536 52 38 6.1 10.4 0.00 0.00 0.00 46 1024.0
20260507152037 51 26 5.2 8.7 0.00 0.00 0.00 47 1023.8
20260507151316 51 30 5.2 9.6 0.00 0.00 0.00 48 1023.8
20260507150815 50 53 4.3 9.6 0.00 0.00 0.00 49 1023.4
20260507150314 50 47 4.3 8.7 0.00 0.00 0.00 52 1023.2
20260507145809 49 49 3.5 7.8 0.00 0.00 0.00 52 1023.3
20260507145307 49 38 2.6 7.0 0.00 0.00 0.00 54 1023.2
20260507144807 49 42 3.5 6.1 0.00 0.00 0.00 54 1023.0
20260507144534 48 42 2.6 6.1 0.00 0.00 0.00 56 1022.9
20260507143806 47 64 1.7 6.1 0.00 0.00 0.00 56 1022.5
20260507143307 47 71 1.7 6.1 0.00 0.00 0.00 58 1022.3
20260507143025 47 56 3.5 6.1 0.00 0.00 0.00 58 1022.2
20260507142306 46 56 3.5 7.0 0.00 0.00 0.00 57 1022.1
20260507141804 46 53 4.3 7.8 0.00 0.00 0.00 59 1021.9
20260507141300 45 51 4.3 8.7 0.00 0.00 0.00 60 1021.8
20260507140759 45 42 4.3 8.7 0.00 0.00 0.00 61 1021.6
20260507140258 44 44 3.5 7.0 0.00 0.00 0.00 63 1021.3
20260507135758 43 23 3.5 7.8 0.00 0.00 0.00 65 1021.0
20260507135255 42 47 3.5 7.8 0.00 0.00 0.00 66 1020.6
20260507134743 42 33 2.6 6.1 0.00 0.00 0.00 68 1020.4
20260507134242 41 34 2.6 6.1 0.00 0.00 0.00 70 1019.9
20260507133738 40 22 2.6 6.1 0.00 0.00 0.00 72 1019.4
20260507133238 39 9 1.7 5.2 0.00 0.00 0.00 75 1019.1
20260507132738 38 355 1.7 5.2 0.00 0.00 0.00 78 1018.7
20260507132238 37 355 1.7 5.2 0.00 0.00 0.00 81 1018.0
20260507131737 36 355 0.9 4.3 0.00 0.00 0.00 84 1017.6
20260507131235 34 355 0.9 4.3 0.00 0.00 0.00 87 1017.0
20260507130733 33 355 0.0 3.5 0.00 0.00 0.00 89 1016.3
20260507130232 31 355 0.0 2.6 0.00 0.00 0.00 91 1015.6
20260507125733 30 355 0.0 2.6 0.00 0.00 0.00 92 1014.9
20260507125231 29 355 0.0 1.7 0.00 0.00 0.00 90 1014.2
20260507124729 28 355 0.0 0.9 0.00 0.00 0.00 89 1013.8
20260507124224 27 355 0.0 1.7 0.00 0.00 0.00 88 1013.4
20260507123718 27 355 0.0 1.7 0.00 0.00 0.00 87 1013.2
20260507123211 26 355 0.0 0.9 0.00 0.00 0.00 86 1013.1
20260507122705 26 355 0.0 0.9 0.00 0.00 0.00 85 1012.9
20260507122201 26 355 0.9 1.7 0.00 0.00 0.00 84 1012.9
20260507121702 26 355 0.9 1.7 0.00 0.00 0.00 84 1012.8
20260507121200 26 355 0.0 1.7 0.00 0.00 0.00 83 1012.8
20260507120700 26 355 0.0 1.7 0.00 0.00 0.00 83 1012.9
20260507120153 26 355 0.9 2.6 0.00 0.00 0.00 83 1012.8
20260507115654 27 355 1.7 3.5 0.00 0.00 0.00 83 1012.9
20260507115147 27 355 1.7 3.5 0.00 0.00 0.00 84 1012.8
20260507114644 26 355 0.9 3.5 0.00 0.00 0.00 84 1012.7
20260507114142 26 355 0.9 2.6 0.00 0.00 0.00 84 1012.7
20260507113641 26 355 0.9 2.6 0.00 0.00 0.00 84 1012.7
20260507113402 27 355 0.9 1.7 0.00 0.00 0.00 83 1012.8
20260507112637 27 355 0.9 1.7 0.00 0.00 0.00 83 1012.9
20260507112136 27 355 0.9 1.7 0.00 0.00 0.00 83 1012.9
20260507111631 27 355 0.9 2.6 0.00 0.00 0.00 83 1012.8
20260507111131 27 355 1.7 4.3 0.00 0.00 0.00 84 1012.8
20260507110632 27 355 1.7 4.3 0.00 0.00 0.00 84 1012.6
20260507110132 27 355 0.9 3.5 0.00 0.00 0.00 84 1012.5
20260507105631 27 355 0.9 1.7 0.00 0.00 0.00 84 1012.6
20260507105131 27 355 0.9 1.7 0.00 0.00 0.00 84 1012.6
20260507104630 27 355 0.9 3.5 0.00 0.00 0.00 84 1012.5
20260507104126 28 355 1.7 3.5 0.00 0.00 0.00 85 1012.6
20260507103620 27 355 0.9 3.5 0.00 0.00 0.00 84 1012.6
20260507103118 27 355 0.0 1.7 0.00 0.00 0.00 83 1012.5
20260507102617 28 355 0.9 1.7 0.00 0.00 0.00 82 1012.8
20260507102118 28 355 0.9 1.7 0.00 0.00 0.00 83 1012.8
20260507101609 28 355 0.9 1.7 0.00 0.00 0.00 82 1012.9
20260507101108 28 355 0.9 1.7 0.00 0.00 0.00 83 1012.9
20260507100607 28 355 0.0 0.9 0.00 0.00 0.00 83 1012.9
20260507100104 28 355 0.0 0.0 0.00 0.00 0.00 83 1012.9
20260507095804 29 355 0.0 0.0 0.00 0.00 0.00 84 1013.3
20260507095757 29 355 0.0 0.0 0.00 0.00 0.00 84 1013.2
20260507094559 29 355 0.0 0.9 0.00 0.00 0.00 84 1013.2
20260507094057 29 355 0.0 0.9 0.00 0.00 0.00 84 1013.1
20260507093554 29 355 0.0 0.9 0.00 0.00 0.00 83 1012.9
20260507093051 29 355 0.0 0.9 0.00 0.00 0.00 82 1012.9
20260507092811 29 355 0.0 1.7 0.00 0.00 0.00 81 1012.9
20260507092043 29 355 0.0 1.7 0.00 0.00 0.00 80 1013.1
20260507091543 29 355 0.0 0.0 0.00 0.00 0.00 79 1013.1
20260507091040 29 355 0.0 0.0 0.00 0.00 0.00 80 1012.9
20260507090541 29 355 0.0 0.0 0.00 0.00 0.00 79 1013.1
20260507090031 30 355 0.0 1.7 0.00 0.00 0.00 79 1013.2
20260507085531 30 355 0.9 1.7 0.00 0.00 0.00 80 1013.2
20260507085030 30 355 0.0 1.7 0.00 0.00 0.00 81 1013.2
20260507084531 30 355 0.0 0.9 0.00 0.00 0.00 81 1013.1
20260507084027 30 355 0.0 0.0 0.00 0.00 0.00 80 1013.2
20260507083522 30 355 0.0 0.0 0.00 0.00 0.00 79 1013.2
20260507083019 30 355 0.0 0.0 0.00 0.00 0.00 78 1013.3
20260507082508 31 355 0.0 0.0 0.00 0.00 0.00 78 1013.6
20260507082005 31 355 0.0 0.9 0.00 0.00 0.00 79 1013.6
20260507081503 31 355 0.0 0.9 0.00 0.00 0.00 78 1013.4
20260507081003 31 355 0.0 0.9 0.00 0.00 0.00 78 1013.4
20260507080503 31 355 0.0 1.7 0.00 0.00 0.00 78 1013.4
20260507080222 31 355 0.9 1.7 0.00 0.00 0.00 79 1013.4
20260507075502 31 355 0.0 1.7 0.00 0.00 0.00 79 1013.4
20260507075220 31 355 0.0 1.7 0.00 0.00 0.00 79 1013.4
20260507074454 31 355 0.0 0.0 0.00 0.00 0.00 80 1013.3
20260507073939 31 355 0.0 0.0 0.00 0.00 0.00 78 1013.3
20260507073432 31 355 0.0 0.0 0.00 0.00 0.00 78 1013.2
20260507072931 31 355 0.0 0.0 0.00 0.00 0.00 77 1013.4
20260507072411 31 355 0.0 0.0 0.00 0.00 0.00 76 1013.4
20260507071904 32 355 0.0 0.0 0.00 0.00 0.00 76 1013.4
20260507071623 32 355 0.0 0.0 0.00 0.00 0.00 76 1013.7
20260507070904 32 355 0.0 0.0 0.00 0.00 0.00 76 1013.7
20260507070403 33 355 0.0 0.0 0.00 0.00 0.00 74 1013.8
20260507070118 33 355 0.0 0.0 0.00 0.00 0.00 75 1013.8
20260507065605 33 355 0.0 2.6 0.00 0.00 0.00 76 1013.9
20260507064837 33 355 0.0 2.6 0.00 0.00 0.00 75 1013.9
20260507064334 33 355 0.0 1.7 0.00 0.00 0.00 76 1013.9
20260507063832 33 355 0.0 0.9 0.00 0.00 0.00 74 1013.8
20260507063330 34 355 0.0 0.0 0.00 0.00 0.00 72 1013.9
20260507063046 34 355 0.0 0.9 0.00 0.00 0.00 72 1014.0
20260507062319 34 355 0.0 0.9 0.00 0.00 0.00 72 1013.9
20260507061818 34 355 0.0 0.0 0.00 0.00 0.00 73 1013.9
20260507061317 35 355 0.0 0.0 0.00 0.00 0.00 73 1014.0
20260507060810 35 355 0.0 0.0 0.00 0.00 0.00 72 1014.0
20260507060304 35 355 0.9 0.0 0.00 0.00 0.00 71 1014.2
20260507060026 36 355 0.9 0.9 0.00 0.00 0.00 70 1014.5
20260507055646 36 355 0.0 0.9 0.00 0.00 0.00 70 1014.4
20260507055634 37 355 0.0 1.7 0.00 0.00 0.00 71 1014.5
20260507054303 37 355 0.0 1.7 0.00 0.00 0.00 70 1014.6
20260507054019 37 355 0.0 1.7 0.00 0.00 0.00 70 1014.5
20260507053516 37 355 0.9 1.7 0.00 0.00 0.00 70 1014.6
20260507053018 38 355 0.9 1.7 0.00 0.00 0.00 69 1014.8
20260507052250 38 355 0.0 2.6 0.00 0.00 0.00 69 1014.9
20260507051744 38 355 0.0 2.6 0.00 0.00 0.00 69 1015.1
20260507051242 38 355 0.0 3.5 0.00 0.00 0.00 70 1015.0
20260507050741 38 355 0.9 5.2 0.00 0.00 0.00 69 1015.0
20260507050239 39 355 0.9 5.2 0.00 0.00 0.00 68 1015.1
20260507045738 39 355 0.0 3.5 0.00 0.00 0.00 67 1015.3
20260507045506 39 355 0.0 3.5 0.00 0.00 0.00 66 1015.5
20260507044732 40 355 0.0 4.3 0.00 0.00 0.00 65 1015.5
20260507044504 40 355 0.0 4.3 0.00 0.00 0.00 65 1015.7
20260507043730 41 355 0.0 2.6 0.00 0.00 0.00 65 1015.9
20260507043224 41 355 0.0 2.6 0.00 0.00 0.00 64 1016.0
20260507042714 41 355 0.0 3.5 0.00 0.01 0.00 64 1016.2
20260507042212 42 355 0.0 3.5 0.00 0.01 0.00 64 1016.2
20260507041712 42 355 0.9 3.5 0.00 0.01 0.00 63 1016.5
20260507041211 42 355 0.9 3.5 0.00 0.01 0.00 62 1016.3
20260507040717 43 355 0.9 3.5 0.00 0.01 0.00 60 1016.6
20260507040209 43 355 0.0 2.6 0.00 0.01 0.00 61 1016.6
20260507035711 44 355 0.9 3.5 0.00 0.01 0.00 60 1016.7
20260507035206 44 355 0.9 4.3 0.00 0.01 0.00 60 1016.8
20260507034659 44 355 0.9 5.2 0.00 0.01 0.00 59 1017.0
20260507034148 45 355 1.7 5.2 0.00 0.01 0.00 58 1017.0
20260507033653 45 355 1.7 5.2 0.00 0.01 0.00 57 1017.1
20260507033151 45 355 2.6 7.8 0.00 0.01 0.00 56 1017.2
20260507032648 46 0 2.6 7.8 0.00 0.01 0.00 56 1017.2
20260507032144 46 5 3.5 7.0 0.00 0.01 0.00 55 1017.2
20260507031644 46 5 3.5 7.0 0.00 0.01 0.00 55 1017.3
20260507031138 47 15 3.5 7.8 0.00 0.01 0.00 54 1017.4
20260507030634 47 19 3.5 7.8 0.00 0.01 0.00 53 1017.3
20260507030133 47 24 2.6 7.8 0.00 0.01 0.00 51 1017.3
20260507025635 47 5 2.6 7.8 0.00 0.01 0.00 48 1017.2
20260507025131 47 252 2.6 5.2 0.00 0.01 0.00 40 1017.0
20260507024632 47 249 3.5 5.2 0.00 0.01 0.00 42 1016.5